Location: Newark
(60.6561°N, 46.5772°E)
Time: 09:39:12
(UTC+00:00)

Tiros 1 despin weight - Pass Details

Date: 30 October 2019
Orbit: 594 x 642 km, 48.2° (Epoch: 18 November)

Event Time Altitude Azimuth Distance (km) Brightness Sun altitude
Rises 22:22:14 0° 256° (WSW) 2,929 - -39.5°
Reaches altitude 10° 22:25:54 10° 227° (SW) 2,027 - -39.3°
Maximum altitude 22:27:45 12° 203° (SSW) 1,883 - -39.1°
Drops below altitude 10° 22:29:36 10° 180° (S) 2,030 - -39.0°
Sets 22:33:17 0° 150° (SSE) 2,940 - -38.7°
